Location: Unspecified
(49.2170°N, 0.0000°E)
Time: 14:09:09
(UTC+00:00)

Tiros 1 despin weight - Pass Details

Date: 21 January 2021
Orbit: 593 x 642 km, 48.2° (Epoch: 06 March)

Event Time Altitude Azimuth Distance (km) Brightness Sun altitude
Rises 14:25:03 0° 196° (SSW) 2,876 ? 14.9°
Reaches altitude 10° 14:28:17 10° 172° (S) 1,964 ? 14.6°
Maximum altitude 14:30:43 14° 139° (SE) 1,685 ? 14.4°
Drops below altitude 10° 14:33:08 10° 106° (ESE) 1,954 ? 14.2°
Sets 14:36:20 0° 82° (E) 2,851 ? 13.9°
